PST,Max TemperatureF,Mean TemperatureF,Min TemperatureF,Max Dew PointF,MeanDew PointF,Min DewpointF,Max Humidity, Mean Humidity, Min Humidity, Max Sea Level PressureIn, Mean Sea Level PressureIn, Min Sea Level PressureIn, Max VisibilityMiles, Mean VisibilityMiles, Min VisibilityMiles, Max Wind SpeedMPH, Mean Wind SpeedMPH, Max Gust SpeedMPH,PrecipitationIn, CloudCover, Events, WindDirDegrees
2011-11-1,59,48,36,37,35,28,79,64,43,30.54,30.48,30.36,10,10,5,9,6,,0.00,0,,44
2011-11-2,63,50,37,46,37,27,80,63,47,30.27,30.11,30.00,10,10,2,14,9,24,0.57,1,,175
2011-11-3,52,45,37,39,37,34,83,72,59,30.03,29.93,29.86,10,10,8,12,7,,0.01,5,,153
2011-11-4,50,43,36,39,33,30,82,74,56,30.04,29.99,29.91,10,8,0,12,7,,0.00,5,,169
2011-11-5,48,45,41,39,37,34,79,74,70,29.98,29.81,29.69,10,10,9,16,12,23,0.12,8,,145
2011-11-6,54,49,43,41,38,36,83,71,63,30.17,29.98,29.74,10,10,8,9,5,10,0.00,5,,209
2011-11-7,54,48,41,45,40,34,82,76,66,30.33,30.30,30.26,10,10,8,10,7,,0.03,7,,154
2011-11-8,54,47,39,45,39,34,82,76,63,30.31,30.27,30.22,10,9,1,9,5,,0.00,7,,147
2011-11-9,61,51,41,45,40,36,82,66,49,30.25,30.20,30.13,10,10,10,10,5,,0.00,0,,149
2011-11-10,61,49,37,45,38,32,82,71,55,30.13,30.08,30.01,10,8,0,12,7,,0.00,1,,147
2011-11-11,63,50,37,45,37,30,80,66,42,29.98,29.86,29.79,10,10,8,14,7,,0.05,2,,156
2011-11-12,54,48,41,45,39,34,83,73,59,30.08,30.02,29.94,10,9,1,10,8,,0.20,6,,168
2011-11-13,54,50,46,45,44,43,86,80,71,30.12,30.08,30.01,10,9,4,8,5,10,0.05,8,,185
2011-11-14,55,49,43,45,42,36,86,77,71,30.19,30.15,30.09,10,8,1,10,5,11,0.00,7,,186
2011-11-15,54,50,46,45,44,43,86,80,71,30.30,30.26,30.23,10,9,3,7,4,8,0.14,8,,114
2011-11-16,55,52,48,46,45,43,83,77,71,30.21,30.16,30.06,10,8,2,22,14,37,0.74,8,,183
2011-11-17,54,50,45,48,40,36,83,72,63,30.10,30.04,29.88,10,9,3,28,13,46,0.28,7,,245
2011-11-18,48,44,39,37,34,32,79,69,60,29.87,29.82,29.79,10,10,5,24,14,30,0.37,7,,263
2011-11-19,52,46,39,37,35,32,76,71,61,29.87,29.82,29.76,10,10,9,16,9,28,0.12,6,,115
2011-11-20,54,44,34,37,33,27,76,68,50,29.94,29.89,29.82,10,10,10,16,6,20,0.00,0,,100
2011-11-21,54,48,41,45,40,36,80,69,59,29.93,29.88,29.79,10,10,9,31,15,41,0.53,7,,170
2011-11-22,63,58,52,48,47,45,77,70,57,29.84,29.77,29.67,10,10,6,31,24,51,0.45,7,,189
2011-11-23,61,50,39,45,40,36,79,70,51,29.92,29.73,29.55,10,9,5,29,12,46,1.27,7,,200
2011-11-24,52,44,36,39,34,28,82,73,63,29.96,29.92,29.87,10,8,1,18,12,35,0.14,7,,167
2011-11-25,57,49,41,43,39,34,82,73,59,30.43,30.36,30.17,10,8,0,9,5,,0.01,6,,134
2011-11-26,54,49,43,43,39,36,83,71,63,30.43,30.36,30.26,10,10,5,13,5,,0.00,1,,147
2011-11-27,57,50,43,48,41,37,82,78,71,30.40,30.29,30.20,10,8,1,18,7,23,0.34,6,,153
2011-11-28,52,48,43,43,40,36,83,76,71,30.47,30.43,30.40,10,10,8,12,6,,0.00,8,,1
2011-11-29,52,45,37,39,37,30,83,74,63,30.44,30.40,30.36,10,9,0,11,5,12,0.03,4,,66
2011-11-30,54,46,37,45,41,37,86,76,66,30.63,30.55,30.45,10,8,3,14,5,20,0.05,6,,26